Regional Weather Roundup
Issued by NWS

Home | Current Version | Previous Version | Graphics & Text | Print | Product List | Glossary On
Versions: 1 2 3 4 5 6 7 8 9 10 11 12 13 14 15 16 17 18 19 20 21 22 23 24 25 26 27 28 29 30 31 32 33 34 35 36 37 38 39 40 41 42 43 44 45 46 47 48 49 50
000
ASUS43 KMPX 040510
RWRMN
WEATHER ROUNDUP FOR MINNESOTA
NATIONAL WEATHER SERVICE TWIN CITIES/CHANHASSEN MN
1200 AM CDT SAT JUL 04 2015


NOTE: "FAIR" INDICATES FEW OR NO CLOUDS BELOW 12,000 FEET WITH NO
SIGNIFICANT WEATHER AND/OR OBSTRUCTIONS TO VISIBILITY. N/A MEANS
CURRENT SKY AND/OR WEATHER CONDITIONS ARE NOT AVAILABLE.

MNZ060>063-068>070-040600-
   Twin Cities Metro

CITY           SKY/WX    TMP DP  RH WIND       PRES   REMARKS
TWIN CITIES    MOCLDY    71  59  65 SW3       29.92R
ST PAUL        CLEAR     67  62  84 CALM      29.92R
CRYSTAL        CLEAR     68  60  75 CALM      29.91R
BLAINE         CLEAR     70  61  73 CALM      29.92R
LAKEVILLE      CLEAR     64  57  77 CALM      29.93R
EDEN PRAIRIE   CLEAR     69  60  73 W3        29.91S
SOUTH ST PAUL  CLEAR     69  59  70 CALM      29.92R
LAKE ELMO      FAIR      64  61  88 CALM      29.93S
$$
MNZ001>005-007-008-013>017-022>024-027-028-040600-
   Northwest Minnesota

CITY           SKY/WX    TMP DP  RH WIND       PRES   REMARKS
BEMIDJI        CLEAR     58  57  94 CALM      29.94S
HALLOCK        CLEAR     61  57  88 SE5       29.89S FOG
ROSEAU         CLEAR     63  57  82 S3        29.91S
WARROAD        CLEAR     64  59  82 S3        29.92S
THIEF RVR FALL CLEAR     64  61  88 CALM      29.92S
CROOKSTON      CLEAR     64  61  88 CALM      29.91S FOG
FOSSTON        CLEAR     57  52  82 CALM      29.94S HAZE
DETROIT LAKES  CLEAR     64  61  88 CALM      29.95S FOG
MOORHEAD       CLEAR     66  61  82 SE3       29.92R HAZE
PARK RAPIDS    CLOUDY    61  58  90 CALM      29.94S FOG
MAHNOMEN       CLOUDY    65  62  90 SE3       29.93R
$$
MNZ006-009>011-018-025>026-040600-
   North Central Minnesota

CITY           SKY/WX    TMP DP  RH WIND       PRES   REMARKS
BAUDETTE       CLEAR     60  56  86 CALM      29.91S
FLAG ISLAND    CLEAR     70  57  64 SW3       29.89F
INTL FALLS     CLEAR     54  52  93 CALM      29.93R
WASKISH        FOG       57  55  94 CALM      29.93R VSB 3/4
BIG FORK       CLEAR     55  54  94 CALM      29.95R FOG
LONGVILLE      CLEAR     57  57 100 CALM      29.94S FOG
GRAND RAPIDS   CLEAR     57  54  88 CALM      29.94R
CRANE LAKE     CLEAR     54  52  94 CALM      29.95S
ORR            PTCLDY    57  52  82 CALM      29.92S
COOK           PTCLDY    57  54  88 CALM      29.95R
WALKER         FAIR      59  58  97 CALM      29.94R FOG
$$
MNZ012-019>021-037-040600-
   Northeast Minnesota

CITY           SKY/WX    TMP DP  RH WIND       PRES   REMARKS
DULUTH         CLEAR     63  55  75 N5        29.93R
ELY            CLEAR     57  52  82 CALM      29.95R
HIBBING        CLEAR     55  53  93 CALM      29.94R
DULUTH HARBOR  CLEAR     66  61  82 N5        29.90R
TWO HARBORS    CLEAR     66  57  72 N5        29.91R
SILVER BAY     CLEAR     63  54  72 CALM      29.91R
GRAND MARAIS     N/A     61  53  75 N3        29.91R
G MARAIS ARPRT CLEAR     57  52  82 N5        29.96R
$$
MNZ029>031-032-039>041-046>048-054>057-064-040600-
   West Central Minnesota

CITY           SKY/WX    TMP DP  RH WIND       PRES   REMARKS
FERGUS FALLS   CLEAR     66  64  94 CALM      29.92S FOG
WHEATON        CLEAR     64  61  88 CALM      29.94R FOG
MORRIS         CLEAR     66  64  94 CALM      29.93R FOG
ALEXANDRIA     CLOUDY    65  63  93 CALM      29.96R FOG
ELBOW LAKE     FAIR      67  64  92 CALM      29.93S FOG
WADENA         CLEAR     61  61 100 CALM      29.94S FOG
GLENWOOD       CLEAR     68  63  83 N3        29.95S HAZE
APPLETON       PTCLDY    66  63  88 CALM      29.92S FOG
BENSON         FOG       63  61  94 CALM      29.93R VSB<1/4
ORTONVILLE     CLEAR     70  64  83 CALM      29.93S HAZE
MADISON        CLEAR     66  63  88 CALM      29.93S FOG
WILLMAR        FAIR      66  66 100 CALM      29.95R FOG
$$
MNZ033>034-036-042>043-049>051-058-059-040600-
   Central Minnesota

CITY           SKY/WX    TMP DP  RH WIND       PRES   REMARKS
ST CLOUD       CLOUDY    64  63  96 CALM      29.92R FOG
SAUK CENTRE    MOCLDY    63  62  97 CALM      29.94S FOG
PAYNESVILLE      N/A     61  61  99 CALM      29.94S FOG
AITKIN         HAZE      59  54  82 CALM      29.92S VSB 1/2
PINE RIVER     CLEAR     59  57  94 CALM      29.97S FOG
BRAINERD       MOCLDY    59  58  96 CALM      29.94R FOG
STAPLES        CLEAR     63  61  94 CALM      29.94S FOG
LONG PRAIRIE   CLOUDY    63  61  94 CALM      29.95R FOG
LITTLE FALLS     N/A     61  59  94 CALM      29.94R FOG
LITCHFIELD     CLEAR     70  64  83 CALM      29.94R
BUFFALO        CLEAR     65  60  82 CALM      29.94R
MAPLE LAKE     CLEAR     64  62  95 CALM      29.93S
$$
MNZ037-044-045-052-053-040600-
   East Central Minnesota

CITY           SKY/WX    TMP DP  RH WIND       PRES   REMARKS
PRINCETON      CLEAR    N/A N/A N/A CALM      29.93R FOG
MORA           FOG       61  59  94 CALM      29.94R VSB 1/2
CAMBRIDGE      CLEAR     66  57  72 CALM      29.91R
RUSH CITY      PTCLDY    63  62  95 W3        29.92R
MOOSE LAKE       N/A     59  57  94 CALM      29.91R FOG
HINCKLEY       FAIR      61  61 100 CALM      29.92R FOG
CLOQUET        CLEAR     61  55  82 NW6       29.93R
MCGREGOR       CLEAR     61  59  94 CALM      29.94R
$$
MNZ071>073-080-081-089-090-097-098-040600-
   Southwest Minnesota

CITY           SKY/WX    TMP DP  RH WIND       PRES   REMARKS
MONTEVIDEO     MOCLDY    70  64  83 CALM      29.93S
GRANITE FALLS  PTCLDY    70  63  80 CALM      29.94S
CANBY          CLEAR     68  65  90 W3        29.94S
MARSHALL       PTCLDY    72  63  73 SW8       29.92
REDWOOD FALLS  PTCLDY    70  61  73 S3        29.92S
OLIVIA         CLEAR     68  61  77 CALM      29.92S
PIPESTONE      CLEAR     64  63  94 SW3       29.97S
WINDOM         CLEAR     66  61  82 CALM      29.96S
WORTHINGTON    CLEAR     64  57  77 SW8       29.98R
JACKSON        CLEAR     66  57  72 SW7       29.98R
TRACY          PTCLDY    71  66  84 SW7       29.95S
SLAYTON        CLEAR     66  63  91 CALM      29.98S
$$
MNZ065>067-074>077-082>085-091>093-040600-
   South Central Minnesota

CITY           SKY/WX    TMP DP  RH WIND       PRES   REMARKS
MANKATO        CLEAR     66  57  72 S5        29.94S
NEW ULM        CLEAR     66  61  82 CALM      29.93S
ST JAMES       CLEAR     66  61  82 CALM      29.95S
FAIRMONT       CLEAR     64  55  72 CALM      29.95S
GLENCOE        CLEAR     66  62  86 CALM      29.93R
FARIBAULT      CLEAR     63  59  88 CALM      29.94F
OWATONNA       CLEAR     63  55  77 CALM      29.95S
WASECA         CLEAR     59  55  88 CALM      29.96S
ALBERT LEA     CLEAR     63  59  88 CALM      29.96S
$$
MNZ078>079-086>088-094>096-040600-
   Southeast Minnesota

CITY           SKY/WX    TMP DP  RH WIND       PRES   REMARKS
ROCHESTER      CLEAR     62  55  77 SW3       29.97R
RED WING       CLEAR     63  59  88 CALM      29.92R
STANTON        CLEAR     63  57  82 S3        29.92S
DODGE CENTER   CLEAR     61  55  82 SW6       29.96R
WINONA         CLEAR     63  61  94 CALM      29.94S
AUSTIN         CLEAR     63  59  88 CALM      29.96S
PRESTON        CLEAR     63  54  73 W3        29.97R
$$
ABBREVIATIONS USED IN REMARKS
   TC - TEMPERATURES IN CELSIUS
  WCI - WIND CHILL INDEX
   HX - HEAT INDEX
  VSB - VISIBILITY
$$



USA.gov is the U.S. government's official web portal to all federal, state and local government web resources and services.